EW2353 Weather Reports


time (UTC)temp
C
wind
direction
speed
KPH
gust
KPH
rain 1hr
cm
rain 24hr
cm
rain mn
cm
humidity
%
barometer
mb
20260509043814 12 1 0.0 0.0 0.03 0.15 0.03 96 1010.3
20260509043326 12 352 0.0 0.0 0.03 0.15 0.03 96 1010.3
20260509042819 12 359 0.0 0.0 0.05 0.15 0.03 96 1010.3
20260509042312 12 3 0.0 0.0 0.05 0.15 0.03 96 1010.4
20260509041825 12 1 0.0 0.0 0.05 0.15 0.03 96 1010.4
20260509041317 12 4 0.0 0.0 0.05 0.13 0.00 95 1010.5
20260509040851 12 4 0.0 0.0 0.08 0.13 0.00 95 1010.6
20260509040322 12 4 0.0 0.0 0.08 0.13 0.00 95 1010.7
20260509035312 12 299 0.0 0.0 0.10 0.13 0.00 95 1010.8
20260509034825 12 299 0.0 0.0 0.10 0.13 0.13 95 1010.8
20260509034317 12 299 0.0 0.0 0.10 0.13 0.13 95 1010.7
20260509033829 12 299 0.0 0.0 0.10 0.13 0.13 95 1010.7
20260509033322 12 299 0.0 0.0 0.10 0.13 0.13 95 1010.7
20260509032815 12 354 0.0 0.0 0.08 0.10 0.10 95 1010.6
20260509032328 12 19 0.0 0.0 0.08 0.10 0.10 94 1010.6
20260509031825 12 1 0.0 0.0 0.10 0.10 0.10 94 1010.7
20260509031318 12 355 0.0 0.0 0.08 0.08 0.08 94 1010.7
20260509030830 12 271 0.0 0.0 0.05 0.05 0.05 94 1010.9
20260509030324 12 354 0.0 0.0 0.05 0.05 0.05 94 1010.9
20260509025816 12 288 0.0 0.0 0.03 0.03 0.03 93 1010.9
20260509025326 12 287 0.0 0.0 0.03 0.03 0.03 93 1010.8
20260509024819 12 26 0.0 0.0 0.03 0.03 0.03 93 1010.8
20260509024312 12 26 0.0 0.0 0.03 0.03 0.03 93 1010.9
20260509023829 12 26 0.0 0.0 0.03 0.03 0.03 92 1011.0
20260509023322 12 1 0.0 0.0 0.03 0.03 0.03 92 1011.1
20260509022814 12 12 0.0 1.6 0.03 0.03 0.03 92 1011.1
20260509022327 12 340 0.0 9.7 0.03 0.03 0.03 92 1011.1
20260509021820 12 351 1.6 9.7 0.00 0.00 0.00 92 1011.0
20260509021313 12 347 0.0 1.6 0.00 0.00 0.00 91 1011.1
20260509020826 12 266 0.0 1.6 0.00 0.00 0.00 91 1011.2
20260509020319 12 57 0.0 1.6 0.00 0.00 0.00 91 1011.2
20260509015815 12 318 0.0 1.6 0.00 0.00 0.00 90 1011.1
20260509015328 12 25 0.0 0.0 0.00 0.00 0.00 90 1011.1
20260509014821 13 27 0.0 0.0 0.00 0.00 0.00 89 1011.1
20260509014314 13 328 0.0 0.0 0.00 0.00 0.00 89 1010.9
20260509013827 13 328 0.0 0.0 0.00 0.00 0.00 88 1010.6
20260509013320 13 329 0.0 0.0 0.00 0.00 0.00 88 1010.4
20260509012833 13 20 0.0 6.4 0.00 0.00 0.00 88 1010.2
20260509012324 13 7 0.0 8.0 0.00 0.00 0.00 87 1010.2
20260509011822 13 15 0.0 1.6 0.00 0.00 0.00 87 1010.1
20260509011314 13 345 0.0 6.4 0.00 0.00 0.00 86 1010.1
20260509010827 13 3 0.0 6.4 0.00 0.00 0.00 85 1010.2
20260509010340 13 340 1.6 6.4 0.00 0.00 0.00 85 1010.3
20260509005812 13 8 0.0 0.0 0.00 0.00 0.00 84 1010.2
20260509005345 13 356 0.0 0.0 0.00 0.00 0.00 83 1010.3
20260509004816 14 352 0.0 1.6 0.00 0.00 0.00 82 1010.2
20260509004329 14 8 0.0 1.6 0.00 0.00 0.00 82 1010.3
20260509003822 14 347 0.0 3.2 0.00 0.00 0.00 81 1010.2
20260509003319 14 313 0.0 6.4 0.00 0.00 0.00 80 1010.3
20260509002829 14 13 0.0 8.0 0.00 0.00 0.00 80 1010.3
20260509002342 15 343 1.6 9.7 0.00 0.00 0.00 79 1010.0
20260509001812 15 359 1.6 9.7 0.00 0.00 0.00 78 1010.0
20260509001325 15 295 3.2 8.0 0.00 0.00 0.00 79 1010.2
20260509000815 15 345 0.0 1.6 0.00 0.00 0.00 79 1010.2
20260509000328 15 259 0.0 0.0 0.00 0.00 0.00 80 1010.0
20260508235822 15 259 0.0 0.0 0.00 0.00 0.00 81 1010.0
20260508235314 15 259 0.0 0.0 0.00 0.00 0.00 82 1010.1
20260508234831 15 259 0.0 0.0 0.00 0.00 0.00 83 1010.1
20260508234324 16 259 0.0 0.0 0.00 0.00 0.00 84 1010.0
20260508233816 16 259 0.0 0.0 0.00 0.00 0.00 81 1009.8
20260508233329 16 259 0.0 0.0 0.00 0.00 0.00 81 1009.8
20260508232842 16 259 0.0 0.0 0.00 0.00 0.00 80 1009.8
20260508232314 16 259 0.0 0.0 0.00 0.00 0.00 81 1009.8
20260508231827 16 259 0.0 0.0 0.00 0.00 0.00 80 1009.7
20260508231320 16 259 0.0 0.0 0.00 0.00 0.00 80 1009.8
20260508230815 16 259 0.0 0.0 0.00 0.00 0.00 74 1009.8
20260508230328 16 259 0.0 0.0 0.00 0.00 0.00 74 1009.7
20260508225818 16 259 0.0 0.0 0.00 0.00 0.00 75 1009.8
20260508225311 16 259 0.0 0.0 0.00 0.00 0.00 73 1009.9
20260508224824 16 259 0.0 0.0 0.00 0.00 0.00 72 1009.9
20260508224317 16 259 0.0 0.0 0.00 0.00 0.00 71 1009.9
20260508223830 16 259 0.0 0.0 0.00 0.00 0.00 69 1009.8
20260508223323 17 259 0.0 0.0 0.00 0.00 0.00 67 1009.7
20260508222819 17 259 0.0 0.0 0.00 0.00 0.00 67 1009.7
20260508222312 17 259 0.0 0.0 0.00 0.00 0.00 65 1009.8
20260508221825 17 259 0.0 0.0 0.00 0.00 0.00 64 1009.8
20260508221318 17 259 0.0 0.0 0.00 0.00 0.00 64 1009.7
20260508220811 17 259 0.0 1.6 0.00 0.00 0.00 62 1009.8
20260508220344 17 259 0.0 1.6 0.00 0.00 0.00 61 1009.7
20260508215815 17 259 0.0 1.6 0.00 0.00 0.00 58 1009.7
20260508215329 18 259 0.0 1.6 0.00 0.00 0.00 59 1009.7
20260508214821 18 267 0.0 4.8 0.00 0.00 0.00 59 1009.7
20260508214338 18 269 1.6 4.8 0.00 0.00 0.00 57 1009.7
20260508213850 18 277 1.6 4.8 0.00 0.00 0.00 57 1009.7
20260508213322 18 281 1.6 4.8 0.00 0.00 0.00 57 1009.7
20260508212811 18 262 1.6 4.8 0.00 0.00 0.00 57 1009.7
20260508212324 18 253 1.6 11.3 0.00 0.00 0.00 56 1009.7
20260508211817 18 230 3.2 8.0 0.00 0.00 0.00 53 1009.7
20260508211330 18 256 1.6 6.4 0.00 0.00 0.00 57 1009.7
20260508210843 18 214 1.6 8.0 0.00 0.00 0.00 54 1009.7
20260508210335 18 251 3.2 12.9 0.00 0.00 0.00 53 1009.8
20260508205827 18 219 4.8 12.9 0.00 0.00 0.00 53 1009.9
20260508205324 18 256 4.8 8.0 0.00 0.00 0.00 54 1010.0
20260508204817 18 178 4.8 9.7 0.00 0.00 0.00 55 1010.1
20260508204329 18 222 4.8 9.7 0.00 0.00 0.00 53 1010.1
20260508203822 18 224 4.8 11.3 0.00 0.00 0.00 55 1010.2
20260508203335 18 242 6.4 11.3 0.00 0.00 0.00 53 1010.4
20260508202827 18 247 6.4 9.7 0.00 0.00 0.00 54 1010.6
20260508202319 18 240 4.8 11.3 0.00 0.00 0.00 54 1010.6
20260508201811 18 248 6.4 11.3 0.00 0.00 0.00 52 1010.7
20260508201345 18 260 8.0 19.3 0.00 0.00 0.00 52 1010.8
20260508200820 18 217 9.7 19.3 0.00 0.00 0.00 52 1010.8
20260508200334 18 253 8.0 17.7 0.00 0.00 0.00 50 1010.9
20260508195825 18 255 8.0 16.1 0.00 0.00 0.00 52 1010.9
20260508195318 18 168 8.0 16.1 0.00 0.00 0.00 51 1010.9
20260508194810 18 233 6.4 17.7 0.00 0.00 0.00 51 1011.0
20260508194324 18 238 9.7 19.3 0.00 0.00 0.00 49 1011.1
20260508193817 18 276 9.7 20.9 0.00 0.00 0.00 50 1011.0
20260508193329 18 264 12.9 22.5 0.00 0.00 0.00 49 1011.1
20260508192842 18 251 9.7 22.5 0.00 0.00 0.00 49 1011.2
20260508192318 18 236 9.7 22.5 0.00 0.00 0.00 48 1011.2
20260508191852 18 153 9.7 22.5 0.00 0.00 0.00 49 1011.2
20260508190815 19 188 8.0 20.9 0.00 0.00 0.00 49 1011.3
20260508190329 19 205 8.0 19.3 0.00 0.00 0.00 50 1011.3
20260508185842 19 257 11.3 19.3 0.00 0.00 0.00 50 1011.4
20260508185313 19 255 9.7 17.7 0.00 0.00 0.00 49 1011.4
20260508184846 19 261 9.7 20.9 0.00 0.00 0.00 51 1011.6
20260508184318 20 220 12.9 20.9 0.00 0.00 0.00 49 1011.6
20260508183831 20 229 8.0 24.1 0.00 0.00 0.00 49 1011.6
20260508183328 20 238 14.5 27.4 0.00 0.00 0.00 51 1011.6
20260508182821 20 205 12.9 27.4 0.00 0.00 0.00 48 1011.7
20260508182314 20 248 6.4 25.7 0.00 0.00 0.00 52 1011.9
20260508181826 20 240 12.9 25.7 0.00 0.00 0.00 49 1012.0
20260508181320 20 236 16.1 24.1 0.00 0.00 0.00 49 1012.0
20260508180812 19 234 11.3 22.5 0.00 0.00 0.00 51 1012.1
20260508180325 19 215 16.1 22.5 0.00 0.00 0.00 49 1012.1
20260508175818 19 219 9.7 16.1 0.00 0.00 0.00 54 1012.3
20260508175315 18 235 9.7 19.3 0.00 0.00 0.00 54 1012.4
20260508174828 18 257 9.7 24.1 0.00 0.00 0.00 55 1012.6
20260508174320 18 241 12.9 24.1 0.00 0.00 0.00 53 1012.7
20260508173812 18 146 6.4 20.9 0.00 0.00 0.00 56 1012.8
20260508173325 18 225 9.7 24.1 0.00 0.00 0.00 54 1012.9
20260508172817 18 255 14.5 24.1 0.00 0.00 0.00 52 1013.0
20260508172330 18 210 9.7 19.3 0.00 0.00 0.00 56 1013.0
20260508171823 18 243 9.7 19.3 0.00 0.00 0.00 54 1013.0
20260508171339 18 214 9.7 20.9 0.00 0.00 0.00 55 1013.1
20260508170811 18 262 14.5 20.9 0.00 0.00 0.00 55 1013.2
20260508170324 17 271 14.5 20.9 0.00 0.00 0.00 56 1013.3
20260508165817 17 233 8.0 24.1 0.00 0.00 0.00 57 1013.3
20260508165330 17 259 12.9 24.1 0.00 0.00 0.00 55 1013.4
20260508164823 17 187 11.3 24.1 0.00 0.00 0.00 57 1013.6
20260508164336 17 258 14.5 24.1 0.00 0.00 0.00 52 1013.7
20260508163827 18 250 14.5 22.5 0.00 0.00 0.00 53 1013.7
20260508163320 18 219 14.5 19.3 0.00 0.00 0.00 55 1013.8
20260508162837 18 200 9.7 20.9 0.00 0.00 0.00 53 1013.7
20260508162329 18 239 11.3 20.9 0.00 0.00 0.00 52 1013.8
20260508161822 18 260 9.7 19.3 0.00 0.00 0.00 58 1013.9
20260508161314 18 221 9.7 19.3 0.00 0.00 0.00 52 1013.9
20260508160826 18 222 11.3 19.3 0.00 0.00 0.00 54 1014.0
20260508160319 18 243 12.9 25.7 0.00 0.00 0.00 54 1014.0
20260508155829 18 231 11.3 25.7 0.00 0.00 0.00 58 1014.1
20260508155322 18 257 19.3 25.7 0.00 0.00 0.00 54 1014.0
20260508154835 18 246 9.7 27.4 0.00 0.00 0.00 57 1014.1
20260508154331 17 251 14.5 27.4 0.00 0.00 0.00 60 1014.1
20260508153823 17 214 11.3 29.0 0.00 0.00 0.00 58 1014.1
20260508153316 17 243 19.3 29.0 0.00 0.00 0.00 55 1014.2
20260508152830 17 224 12.9 20.9 0.00 0.00 0.00 58 1014.3
20260508152322 17 301 11.3 20.9 0.00 0.00 0.00 55 1014.2
20260508151815 17 265 9.7 20.9 0.00 0.00 0.00 56 1014.3
20260508151328 17 216 11.3 29.0 0.00 0.00 0.00 55 1014.3
20260508150821 17 284 17.7 29.0 0.00 0.00 0.00 54 1014.4
20260508150318 17 247 12.9 24.1 0.00 0.00 0.00 56 1014.4
20260508145831 17 250 11.3 24.1 0.00 0.00 0.00 56 1014.5
20260508145323 17 266 12.9 22.5 0.00 0.00 0.00 55 1014.5
20260508144816 17 226 14.5 22.5 0.00 0.00 0.00 54 1014.4
20260508144349 16 231 11.3 22.5 0.00 0.00 0.00 58 1014.6
20260508143821 16 242 12.9 22.5 0.00 0.00 0.00 54 1014.5
20260508143313 16 181 11.3 25.7 0.00 0.00 0.00 56 1014.5
20260508142827 16 235 12.9 25.7 0.00 0.00 0.00 56 1014.6
20260508142323 16 246 16.1 24.1 0.00 0.00 0.00 54 1014.7
20260508141816 16 160 16.1 22.5 0.00 0.00 0.00 55 1014.6
20260508141329 16 257 9.7 19.3 0.00 0.00 0.00 59 1014.7
20260508140822 15 225 8.0 19.3 0.00 0.00 0.00 56 1014.8
20260508140315 15 205 9.7 19.3 0.00 0.00 0.00 57 1014.8
20260508135825 15 257 9.7 24.1 0.00 0.00 0.00 59 1014.8
20260508135318 15 229 11.3 24.1 0.00 0.00 0.00 59 1014.9
20260508134830 15 250 16.1 22.5 0.00 0.00 0.00 56 1015.0
20260508134327 14 266 12.9 19.3 0.00 0.00 0.00 60 1014.9
20260508133821 14 250 11.3 20.9 0.00 0.00 0.00 59 1014.9
20260508133313 14 245 11.3 20.9 0.00 0.00 0.00 60 1014.9
20260508132847 13 246 11.3 22.5 0.00 0.00 0.00 59 1014.9
20260508132318 13 262 12.9 22.5 0.00 0.00 0.00 59 1014.9
20260508131831 13 247 14.5 24.1 0.00 0.00 0.00 61 1014.9
20260508131324 13 212 14.5 24.1 0.00 0.00 0.00 59 1014.9
20260508130836 13 242 11.3 22.5 0.00 0.00 0.00 60 1014.9
20260508130328 13 205 8.0 20.9 0.00 0.00 0.00 61 1014.9
20260508125825 13 168 11.3 20.9 0.00 0.00 0.00 61 1014.9
20260508125337 12 237 8.0 17.7 0.00 0.00 0.00 64 1014.9
20260508124849 12 210 8.0 17.7 0.00 0.00 0.00 67 1014.9
20260508124321 12 193 6.4 11.3 0.00 0.00 0.00 73 1014.9
20260508123813 11 129 0.0 11.3 0.00 0.00 0.00 73 1014.8
20260508123326 11 212 1.6 9.7 0.00 0.00 0.00 73 1014.8
20260508122819 11 217 0.0 8.0 0.00 0.00 0.00 75 1014.7
20260508122312 10 195 4.8 8.0 0.00 0.00 0.00 74 1014.7
20260508121825 10 220 3.2 8.0 0.00 0.00 0.00 75 1014.7
20260508121322 10 209 1.6 6.4 0.00 0.00 0.00 77 1014.7
20260508120814 9 213 1.6 4.8 0.00 0.00 0.00 79 1014.7
20260508120327 9 229 1.6 4.8 0.00 0.00 0.00 80 1014.7
20260508115840 9 209 0.0 3.2 0.00 0.00 0.00 79 1014.8
20260508115312 8 213 0.0 3.2 0.00 0.00 0.00 80 1014.7
20260508114844 8 216 0.0 0.0 0.00 0.00 0.00 81 1014.7
20260508114316 8 214 0.0 0.0 0.00 0.00 0.00 81 1014.7
20260508113849 8 226 0.0 0.0 0.00 0.00 0.00 81 1014.6
20260508113321 7 226 0.0 0.0 0.00 0.00 0.00 82 1014.6
20260508112814 7 226 0.0 0.0 0.00 0.00 0.00 81 1014.5
20260508112330 7 226 0.0 0.0 0.00 0.00 0.00 80 1014.5
20260508111823 8 226 0.0 0.0 0.00 0.00 0.00 79 1014.4
20260508111316 8 226 0.0 0.0 0.00 0.00 0.00 79 1014.4
20260508110829 8 226 0.0 0.0 0.00 0.00 0.00 79 1014.4
20260508110322 8 226 0.0 0.0 0.00 0.00 0.00 78 1014.4
20260508105835 8 226 0.0 0.0 0.00 0.00 0.00 77 1014.4
20260508105327 8 226 0.0 0.0 0.00 0.00 0.00 76 1014.3
20260508104819 8 226 0.0 0.0 0.00 0.00 0.00 75 1014.3
20260508104333 8 225 0.0 0.0 0.00 0.00 0.00 74 1014.2
20260508103828 9 222 0.0 1.6 0.00 0.00 0.00 73 1014.2
20260508103341 9 210 0.0 3.2 0.00 0.00 0.00 73 1014.3
20260508102812 9 243 0.0 4.8 0.00 0.00 0.00 72 1014.4
20260508102326 8 235 1.6 4.8 0.00 0.00 0.00 73 1014.3
20260508101818 8 213 0.0 3.2 0.00 0.00 0.00 76 1014.3
20260508101312 8 229 0.0 0.0 0.00 0.00 0.00 77 1014.3
20260508100824 8 229 0.0 0.0 0.00 0.00 0.00 77 1014.3
20260508100317 8 229 0.0 0.0 0.00 0.00 0.00 77 1014.3
20260508095814 8 229 0.0 0.0 0.00 0.00 0.00 76 1014.3
20260508095327 8 213 0.0 0.0 0.00 0.00 0.00 76 1014.2
20260508094819 8 224 0.0 0.0 0.00 0.00 0.00 76 1014.3
20260508094312 8 224 0.0 1.6 0.00 0.00 0.00 76 1014.2
20260508093825 8 224 0.0 1.6 0.00 0.00 0.00 75 1014.3
20260508093317 8 207 0.0 1.6 0.00 0.00 0.00 76 1014.3
20260508092830 7 192 0.0 1.6 0.00 0.00 0.00 77 1014.3
20260508092323 7 205 0.0 0.0 0.00 0.00 0.00 78 1014.3
20260508091816 7 134 0.0 0.0 0.00 0.00 0.00 79 1014.3
20260508091330 7 134 0.0 0.0 0.00 0.00 0.00 79 1014.3
20260508090823 7 134 0.0 0.0 0.00 0.00 0.00 80 1014.4
20260508090336 6 134 0.0 0.0 0.00 0.00 0.00 80 1014.4
20260508085827 6 134 0.0 0.0 0.00 0.00 0.00 81 1014.3
20260508085319 6 134 0.0 0.0 0.00 0.00 0.00 81 1014.3
20260508084811 6 134 0.0 0.0 0.00 0.00 0.00 82 1014.4
20260508084325 6 134 0.0 0.0 0.00 0.00 0.00 82 1014.3
20260508083814 6 134 0.0 0.0 0.00 0.00 0.00 81 1014.4
20260508083330 6 134 0.0 0.0 0.00 0.00 0.00 79 1014.2
20260508082823 7 134 0.0 0.0 0.00 0.00 0.00 79 1014.2
20260508082315 7 134 0.0 0.0 0.00 0.00 0.00 77 1014.1
20260508081848 7 134 0.0 0.0 0.00 0.00 0.00 77 1014.2
20260508081319 7 134 0.0 1.6 0.00 0.00 0.00 77 1014.2
20260508080812 7 135 0.0 1.6 0.00 0.00 0.00 76 1014.2
20260508080325 7 193 0.0 0.0 0.00 0.00 0.00 76 1014.2
20260508075818 7 193 0.0 1.6 0.00 0.00 0.00 76 1014.2
20260508075315 6 233 0.0 0.0 0.00 0.00 0.00 76 1014.3
20260508074828 7 233 0.0 3.2 0.00 0.00 0.00 76 1014.3
20260508074321 6 233 0.0 3.2 0.00 0.00 0.00 76 1014.2
20260508073814 7 202 0.0 0.0 0.00 0.00 0.00 76 1014.2
20260508073327 7 202 0.0 0.0 0.00 0.00 0.00 75 1014.2
20260508072816 7 202 0.0 0.0 0.00 0.00 0.00 74 1014.1
20260508072345 7 202 0.0 0.0 0.00 0.00 0.00 74 1014.2
20260508071816 7 202 0.0 0.0 0.00 0.00 0.00 73 1014.2
20260508071329 7 202 0.0 0.0 0.00 0.00 0.00 73 1014.2
20260508070826 7 202 0.0 0.0 0.00 0.00 0.00 72 1014.3
20260508070319 7 223 0.0 1.6 0.00 0.00 0.00 72 1014.4
20260508065811 8 223 0.0 1.6 0.00 0.00 0.00 72 1014.4
20260508065324 8 223 0.0 1.6 0.00 0.00 0.00 72 1014.4
20260508064817 8 223 0.0 1.6 0.00 0.00 0.00 72 1014.5
20260508064330 8 223 0.0 3.2 0.00 0.00 0.00 72 1014.6
20260508063823 8 238 0.0 4.8 0.00 0.00 0.00 72 1014.6
20260508063316 8 243 1.6 4.8 0.00 0.00 0.00 72 1014.7
20260508062813 8 241 0.0 4.8 0.00 0.00 0.00 73 1014.7
20260508062325 8 217 1.6 4.8 0.00 0.00 0.00 72 1014.7
20260508061818 8 230 0.0 4.8 0.00 0.00 0.00 73 1014.7
20260508061311 8 220 0.0 4.8 0.00 0.00 0.00 73 1014.9
20260508060824 8 226 0.0 3.2 0.00 0.00 0.00 73 1014.9
20260508060317 8 236 0.0 1.6 0.00 0.00 0.00 73 1014.8
20260508055829 8 217 0.0 3.2 0.00 0.00 0.00 73 1014.8
20260508055322 8 215 0.0 4.8 0.00 0.00 0.00 73 1014.8
20260508054819 7 217 1.6 4.8 0.00 0.00 0.00 74 1014.9
20260508054312 7 243 0.0 3.2 0.00 0.00 0.00 75 1014.9
20260508053825 7 221 0.0 4.8 0.00 0.00 0.00 75 1015.0
20260508053317 7 226 1.6 4.8 0.00 0.00 0.00 76 1014.9
20260508052830 7 231 0.0 1.6 0.00 0.00 0.00 75 1014.9
20260508052322 7 231 0.0 1.6 0.00 0.00 0.00 73 1014.9
20260508051815 7 236 0.0 0.0 0.00 0.00 0.00 72 1014.9
20260508051312 7 236 0.0 1.6 0.00 0.00 0.00 72 1014.9
20260508050845 8 236 0.0 1.6 0.00 0.00 0.00 71 1014.9
20260508050316 8 236 0.0 1.6 0.00 0.00 0.00 71 1014.9
20260508045826 8 226 0.0 3.2 0.00 0.00 0.00 71 1014.9
20260508045319 8 247 0.0 4.8 0.00 0.00 0.00 72 1014.9
20260508044812 8 235 1.6 4.8 0.00 0.00 0.00 72 1015.0
20260508044345 8 250 1.6 4.8 0.00 0.00 0.00 72 1014.9